Location: Unspecified
(52.4292°N, 19.3359°E)
Time: 23:36:06
(UTC+02:00)

A-11 Canister half - Pass Details

Date: 20 May 2024
Orbit: 1515 x 1685 km, 47.2° (Epoch: 19 June)

Event Time Altitude Azimuth Distance (km) Brightness Sun altitude
Rises 10:06:33 0° 285° (WNW) 4,667 11.1 46.3°
Reaches altitude 10° 10:10:11 10° 274° (W) 3,678 10.7 46.7°
Maximum altitude 10:17:20 26° 223° (SW) 2,627 10.5 47.6°
Drops below altitude 10° 10:24:33 10° 171° (S) 3,699 11.6 48.5°
Sets 10:28:14 0° 159° (SSE) 4,699 12.1 48.9°
